TAP59 EGLL-EDDF

Flight info

Callsign TAP59
Flight time 1h 15m
Altitude 35000
Route BPK Q295 MATCH DCT REDFA DCT TACHA DCT NOLRU DCT DIXAT DIXAT1A
Aircraft A321/M-SDE3FGHIRWY/LB1

Departure

Time 2026-05-04 15:05
Airport London Heathrow Airport (EGLL)

Arrival

Time 2026-05-04 16:21
Airport Frankfurt Main Airport (EDDF)
Time Latitude Longitude Altitude Speed Heading
2026-05-04 14:21 51.47232 -0.48582 89 ft 0 kts 270°
2026-05-04 14:48 51.47232 -0.48554 89 ft 4 kts 270°
2026-05-04 14:48 51.47232 -0.48519 86 ft 4 kts 277°
2026-05-04 14:49 51.47224 -0.48484 88 ft 4 kts 327°
2026-05-04 14:49 51.47202 -0.48475 89 ft 3 kts 360°
2026-05-04 14:49 51.47199 -0.48475 89 ft 0 kts 360°
2026-05-04 14:54 51.47225 -0.48476 86 ft 7 kts 359°
2026-05-04 14:54 51.47303 -0.48474 86 ft 15 kts
2026-05-04 14:54 51.47407 -0.48475 86 ft 15 kts 359°
2026-05-04 14:54 51.47513 -0.48476 86 ft 15 kts
2026-05-04 14:55 51.47577 -0.48380 89 ft 14 kts 87°
2026-05-04 14:55 51.47577 -0.48219 86 ft 14 kts 89°
2026-05-04 14:55 51.47578 -0.48069 88 ft 14 kts 90°
2026-05-04 14:55 51.47579 -0.47910 90 ft 14 kts 89°
2026-05-04 14:56 51.47581 -0.47748 90 ft 15 kts 90°
2026-05-04 14:56 51.47581 -0.47586 90 ft 15 kts 90°
2026-05-04 14:56 51.47581 -0.47423 90 ft 15 kts 90°
2026-05-04 14:56 51.47582 -0.47258 88 ft 15 kts 90°
2026-05-04 14:57 51.47582 -0.47094 88 ft 15 kts 90°
2026-05-04 14:57 51.47583 -0.46912 88 ft 17 kts 88°
2026-05-04 14:57 51.47592 -0.46712 86 ft 19 kts 89°
2026-05-04 14:57 51.47593 -0.46490 86 ft 21 kts 89°
2026-05-04 14:58 51.47594 -0.46246 86 ft 23 kts 90°
2026-05-04 14:58 51.47595 -0.45980 90 ft 25 kts 90°
2026-05-04 14:58 51.47597 -0.45691 86 ft 27 kts 89°
2026-05-04 14:58 51.47597 -0.45382 86 ft 29 kts 89°
2026-05-04 14:59 51.47598 -0.45061 86 ft 29 kts 89°
2026-05-04 14:59 51.47600 -0.44746 86 ft 28 kts 91°
2026-05-04 14:59 51.47593 -0.44155 86 ft 26 kts 91°
2026-05-04 15:00 51.47592 -0.43940 89 ft 16 kts 89°
2026-05-04 15:00 51.47593 -0.43881 86 ft 4 kts 90°
2026-05-04 15:00 51.47593 -0.43862 86 ft 0 kts 90°
2026-05-04 15:01 51.47594 -0.43681 86 ft 12 kts 90°
2026-05-04 15:01 51.47597 -0.43586 90 ft 5 kts 76°
2026-05-04 15:01 51.47603 -0.43564 87 ft 0 kts 61°
2026-05-04 15:02 51.47604 -0.43562 87 ft 2 kts 59°
2026-05-04 15:03 51.47627 -0.43517 88 ft 9 kts 49°
2026-05-04 15:03 51.47692 -0.43432 88 ft 15 kts 18°
2026-05-04 15:03 51.47768 -0.43461 89 ft 10 kts 282°
2026-05-04 15:03 51.47767 -0.43484 89 ft 0 kts 269°
2026-05-04 15:04 51.47767 -0.43495 87 ft 7 kts 269°
2026-05-04 15:04 51.47767 -0.44025 88 ft 84 kts 269°
2026-05-04 15:05 51.47762 -0.45276 88 ft 138 kts 270°
2026-05-04 15:05 51.47759 -0.47036 121 ft 174 kts 272°
2026-05-04 15:05 51.47723 -0.48986 651 ft 175 kts 271°
2026-05-04 15:05 51.47718 -0.50960 1202 ft 180 kts 272°
2026-05-04 15:06 51.47718 -0.52942 1778 ft 181 kts 270°
2026-05-04 15:06 51.47882 -0.55014 2184 ft 199 kts 291°
2026-05-04 15:06 51.48515 -0.57121 2502 ft 221 kts 298°
2026-05-04 15:07 51.50070 -0.61972 3438 ft 260 kts 298°
2026-05-04 15:07 51.51192 -0.64239 4194 ft 264 kts 326°
2026-05-04 15:07 51.52915 -0.65211 4990 ft 268 kts 353°
2026-05-04 15:07 51.54791 -0.65226 5712 ft 274 kts
2026-05-04 15:08 51.56528 -0.64001 5951 ft 276 kts 39°
2026-05-04 15:08 51.57781 -0.61697 6002 ft 276 kts 58°
2026-05-04 15:08 51.58854 -0.59122 6010 ft 278 kts 55°
2026-05-04 15:08 51.60000 -0.56610 6007 ft 278 kts 53°
2026-05-04 15:09 51.61175 -0.54134 6006 ft 278 kts 52°
2026-05-04 15:09 51.62327 -0.51627 6006 ft 279 kts 59°
2026-05-04 15:09 51.63225 -0.48871 6006 ft 278 kts 63°
2026-05-04 15:10 51.64949 -0.43339 6029 ft 279 kts 64°
2026-05-04 15:10 51.65813 -0.40545 6084 ft 278 kts 64°
2026-05-04 15:10 51.67533 -0.34979 6087 ft 279 kts 64°
2026-05-04 15:11 51.68393 -0.32182 6087 ft 278 kts 64°
2026-05-04 15:11 51.69251 -0.29391 6086 ft 278 kts 64°
2026-05-04 15:11 51.70112 -0.26590 6094 ft 279 kts 64°
2026-05-04 15:11 51.70968 -0.23793 6082 ft 278 kts 64°
2026-05-04 15:12 51.71824 -0.20991 6079 ft 279 kts 65°
2026-05-04 15:12 51.72682 -0.18175 6088 ft 279 kts 64°
2026-05-04 15:12 51.73537 -0.15374 6080 ft 278 kts 64°
2026-05-04 15:12 51.74383 -0.12609 6082 ft 278 kts 64°
2026-05-04 15:13 51.75035 -0.09682 6087 ft 278 kts 79°
2026-05-04 15:13 51.75302 -0.06563 6731 ft 281 kts 84°
2026-05-04 15:13 51.75555 -0.03425 7607 ft 284 kts 84°
2026-05-04 15:13 51.75826 -0.00235 8407 ft 289 kts 83°
2026-05-04 15:14 51.76103 0.02999 9203 ft 293 kts 83°
2026-05-04 15:14 51.76382 0.06286 10025 ft 297 kts 83°
2026-05-04 15:14 51.76667 0.09666 10441 ft 315 kts 83°
2026-05-04 15:14 51.76969 0.13311 10659 ft 339 kts 83°
2026-05-04 15:15 51.77291 0.17217 10847 ft 363 kts 83°
2026-05-04 15:15 51.77632 0.21384 10979 ft 385 kts 83°
2026-05-04 15:15 51.78057 0.25757 11225 ft 401 kts 77°
2026-05-04 15:16 51.79472 0.34636 12335 ft 413 kts 76°
2026-05-04 15:16 51.80180 0.39079 12917 ft 416 kts 76°
2026-05-04 15:16 51.81633 0.48238 13971 ft 425 kts 76°
2026-05-04 15:17 51.82368 0.52897 14457 ft 430 kts 76°
2026-05-04 15:17 51.83846 0.62308 15515 ft 435 kts 76°
2026-05-04 15:17 51.84592 0.67068 16058 ft 437 kts 77°
2026-05-04 15:18 51.85341 0.71839 16557 ft 440 kts 76°
2026-05-04 15:18 51.86092 0.76645 17093 ft 442 kts 77°
2026-05-04 15:18 51.86833 0.81420 17622 ft 444 kts 77°
2026-05-04 15:19 51.88341 0.91177 18608 ft 450 kts 77°
2026-05-04 15:19 51.89098 0.96107 19009 ft 453 kts 77°
2026-05-04 15:19 51.90620 1.06057 19907 ft 458 kts 77°
2026-05-04 15:20 51.91386 1.11089 20330 ft 462 kts 77°
2026-05-04 15:20 51.92154 1.16153 20743 ft 465 kts 77°
2026-05-04 15:20 51.92928 1.21257 21137 ft 468 kts 77°
2026-05-04 15:20 51.93702 1.26354 21526 ft 471 kts 77°
2026-05-04 15:21 51.94490 1.31550 21914 ft 474 kts 77°
2026-05-04 15:21 51.95266 1.36680 22263 ft 476 kts 77°
2026-05-04 15:21 51.96836 1.47177 22992 ft 482 kts 77°
2026-05-04 15:22 51.97622 1.52492 23341 ft 486 kts 77°
2026-05-04 15:22 51.98410 1.57839 23667 ft 489 kts 77°
2026-05-04 15:22 51.99997 1.68616 24303 ft 493 kts 77°
2026-05-04 15:23 52.00793 1.74032 24695 ft 492 kts 77°
2026-05-04 15:23 52.01573 1.79365 25127 ft 491 kts 78°
2026-05-04 15:23 52.02366 1.84820 25554 ft 490 kts 78°
2026-05-04 15:23 52.03134 1.90121 25978 ft 488 kts 78°
2026-05-04 15:24 52.04690 2.00860 26737 ft 489 kts 78°
2026-05-04 15:24 52.06230 2.11593 27577 ft 487 kts 78°
2026-05-04 15:25 52.06993 2.16950 28011 ft 486 kts 79°
2026-05-04 15:25 52.07752 2.22289 28439 ft 485 kts 79°
2026-05-04 15:25 52.08507 2.27632 28880 ft 484 kts 79°
2026-05-04 15:26 52.09992 2.38198 29728 ft 481 kts 79°
2026-05-04 15:26 52.10730 2.43494 30142 ft 480 kts 80°
2026-05-04 15:26 52.12307 2.54058 30782 ft 482 kts 77°
2026-05-04 15:27 52.13264 2.59297 31104 ft 483 kts 75°
2026-05-04 15:27 52.15360 2.69677 31794 ft 483 kts 74°
2026-05-04 15:28 52.17427 2.79987 32481 ft 482 kts 75°
2026-05-04 15:28 52.18426 2.85196 32832 ft 482 kts 75°
2026-05-04 15:28 52.20359 2.95633 33510 ft 481 kts 76°
2026-05-04 15:29 52.21317 3.00864 33792 ft 482 kts 76°
2026-05-04 15:30 52.24366 3.21996 34885 ft 476 kts 92°
2026-05-04 15:30 52.22419 3.37551 35023 ft 463 kts 116°
2026-05-04 15:31 52.18897 3.52202 35019 ft 463 kts 116°
2026-05-04 15:32 52.13026 3.76571 35012 ft 464 kts 116°
2026-05-04 15:34 52.07050 4.00912 34988 ft 463 kts 117°
2026-05-04 15:34 52.03474 4.15492 34984 ft 463 kts 117°
2026-05-04 15:35 51.99873 4.29959 34979 ft 463 kts 117°
2026-05-04 15:36 51.96246 4.44473 34981 ft 463 kts 117°
2026-05-04 15:36 51.93828 4.54117 34981 ft 461 kts 117°
2026-05-04 15:37 51.91403 4.63727 34986 ft 460 kts 117°
2026-05-04 15:37 51.88990 4.73246 34986 ft 459 kts 117°
2026-05-04 15:38 51.86557 4.82800 34987 ft 459 kts 117°
2026-05-04 15:38 51.84117 4.92350 34973 ft 460 kts 117°
2026-05-04 15:39 51.81668 5.01890 34965 ft 460 kts 117°
2026-05-04 15:40 51.77979 5.16204 34964 ft 460 kts 118°
2026-05-04 15:40 51.75523 5.25676 34964 ft 460 kts 118°
2026-05-04 15:41 51.73041 5.35201 34949 ft 460 kts 118°
2026-05-04 15:41 51.70551 5.44714 34950 ft 461 kts 118°
2026-05-04 15:42 51.68043 5.54236 34953 ft 462 kts 118°
2026-05-04 15:42 51.65533 5.63754 34959 ft 461 kts 118°
2026-05-04 15:43 51.63039 5.73193 34974 ft 461 kts 118°
2026-05-04 15:43 51.60519 5.82671 34959 ft 461 kts 118°
2026-05-04 15:44 51.57982 5.92152 34974 ft 462 kts 118°
2026-05-04 15:44 51.55447 6.01628 34967 ft 461 kts 118°
2026-05-04 15:45 51.52906 6.11066 34964 ft 460 kts 118°
2026-05-04 15:45 51.50369 6.20424 34966 ft 460 kts 118°
2026-05-04 15:46 51.47912 6.29930 34948 ft 462 kts 116°
2026-05-04 15:46 51.45610 6.39579 34955 ft 464 kts 116°
2026-05-04 15:47 51.43299 6.49252 34970 ft 465 kts 116°
2026-05-04 15:47 51.40929 6.58826 34974 ft 465 kts 117°
2026-05-04 15:48 51.38523 6.68421 34974 ft 464 kts 117°
2026-05-04 15:48 51.37322 6.73222 34808 ft 466 kts 117°
2026-05-04 15:48 51.34892 6.82937 33020 ft 473 kts 117°
2026-05-04 15:49 51.33665 6.87828 32087 ft 475 kts 116°
2026-05-04 15:49 51.32431 6.92726 31195 ft 476 kts 116°
2026-05-04 15:49 51.31204 6.97578 30325 ft 477 kts 116°
2026-05-04 15:49 51.29958 7.02498 29371 ft 477 kts 116°
2026-05-04 15:50 51.28579 7.07286 28397 ft 473 kts 123°
2026-05-04 15:50 51.26769 7.11633 27502 ft 467 kts 133°
2026-05-04 15:50 51.24584 7.15344 27126 ft 450 kts 142°
2026-05-04 15:50 51.22182 7.18366 26951 ft 429 kts 150°
2026-05-04 15:51 51.19674 7.20700 26949 ft 408 kts 157°
2026-05-04 15:51 51.17185 7.22714 26695 ft 396 kts 157°
2026-05-04 15:51 51.14752 7.24654 26429 ft 386 kts 157°
2026-05-04 15:51 51.12367 7.26531 26028 ft 380 kts 158°
2026-05-04 15:52 51.10012 7.28391 25632 ft 375 kts 157°
2026-05-04 15:52 51.07736 7.30234 25249 ft 370 kts 156°
2026-05-04 15:52 51.05474 7.32099 25013 ft 362 kts 156°
2026-05-04 15:52 51.03213 7.33976 24872 ft 378 kts 156°
2026-05-04 15:53 51.00788 7.35971 24272 ft 411 kts 156°
2026-05-04 15:53 50.98207 7.38086 23421 ft 421 kts 155°
2026-05-04 15:53 50.95599 7.40239 22467 ft 424 kts 155°
2026-05-04 15:53 50.92977 7.42408 21544 ft 426 kts 155°
2026-05-04 15:54 50.90344 7.44577 20654 ft 428 kts 155°
2026-05-04 15:54 50.87718 7.46733 20197 ft 419 kts 155°
2026-05-04 15:54 50.85180 7.48821 19992 ft 405 kts 155°
2026-05-04 15:54 50.82726 7.50841 19759 ft 391 kts 155°
2026-05-04 15:55 50.80355 7.52776 19276 ft 386 kts 155°
2026-05-04 15:55 50.77980 7.54701 18750 ft 382 kts 155°
2026-05-04 15:55 50.75620 7.56617 18217 ft 379 kts 155°
2026-05-04 15:55 50.73288 7.58511 17638 ft 376 kts 155°
2026-05-04 15:56 50.70972 7.60390 17129 ft 372 kts 155°
2026-05-04 15:56 50.68706 7.62227 16948 ft 359 kts 155°
2026-05-04 15:56 50.66516 7.64007 16699 ft 349 kts 154°
2026-05-04 15:56 50.64357 7.65760 16104 ft 350 kts 154°
2026-05-04 15:57 50.62186 7.67513 15483 ft 351 kts 155°
2026-05-04 15:57 50.60009 7.69262 15085 ft 347 kts 155°
2026-05-04 15:57 50.57928 7.70933 14946 ft 335 kts 155°
2026-05-04 15:57 50.55880 7.72580 14703 ft 326 kts 155°
2026-05-04 15:58 50.53885 7.74187 14458 ft 318 kts 155°
2026-05-04 15:58 50.51935 7.75752 14222 ft 311 kts 155°
2026-05-04 15:58 50.50026 7.77284 13971 ft 305 kts 154°
2026-05-04 15:58 50.48169 7.78773 13753 ft 298 kts 154°
2026-05-04 15:59 50.46328 7.80246 13470 ft 293 kts 155°
2026-05-04 15:59 50.44515 7.81700 13149 ft 291 kts 154°
2026-05-04 15:59 50.42802 7.83379 12840 ft 291 kts 145°
2026-05-04 15:59 50.41223 7.85358 12584 ft 290 kts 144°
2026-05-04 16:00 50.39666 7.87306 12304 ft 290 kts 144°
2026-05-04 16:00 50.38088 7.89270 12029 ft 289 kts 144°
2026-05-04 16:00 50.36511 7.91217 11754 ft 289 kts 145°
2026-05-04 16:00 50.34935 7.93156 11494 ft 287 kts 145°
2026-05-04 16:01 50.33371 7.95089 11214 ft 286 kts 145°
2026-05-04 16:01 50.31811 7.97016 10941 ft 285 kts 146°
2026-05-04 16:01 50.30262 7.98931 10668 ft 283 kts 146°
2026-05-04 16:01 50.28719 8.00836 10400 ft 282 kts 146°
2026-05-04 16:02 50.27202 8.02708 10136 ft 281 kts 146°
2026-05-04 16:02 50.25809 8.04861 9974 ft 285 kts 133°
2026-05-04 16:02 50.23674 8.09219 9837 ft 287 kts 132°
2026-05-04 16:03 50.22460 8.11686 9742 ft 286 kts 131°
2026-05-04 16:03 50.21246 8.14152 9670 ft 285 kts 132°
2026-05-04 16:03 50.20036 8.16599 9588 ft 285 kts 132°
2026-05-04 16:03 50.18822 8.19046 9518 ft 285 kts 132°
2026-05-04 16:04 50.17610 8.21488 9456 ft 284 kts 132°
2026-05-04 16:04 50.15244 8.26257 8785 ft 285 kts 132°
2026-05-04 16:04 50.14033 8.28700 8351 ft 284 kts 131°
2026-05-04 16:05 50.12830 8.31137 7942 ft 283 kts 131°
2026-05-04 16:05 50.11640 8.33569 7534 ft 282 kts 128°
2026-05-04 16:05 50.10500 8.39402 6747 ft 291 kts 91°
2026-05-04 16:06 50.10867 8.42513 6353 ft 295 kts 73°
2026-05-04 16:06 50.12797 8.50462 5278 ft 293 kts 71°
2026-05-04 16:07 50.13735 8.54394 4997 ft 282 kts 71°
2026-05-04 16:07 50.15738 8.62864 5008 ft 279 kts 71°
2026-05-04 16:08 50.16410 8.65699 5008 ft 279 kts 71°
2026-05-04 16:08 50.18427 8.74185 5373 ft 279 kts 71°
2026-05-04 16:09 50.19780 8.79906 5970 ft 284 kts 72°
2026-05-04 16:09 50.21141 8.85693 6010 ft 284 kts 72°
2026-05-04 16:10 50.22475 8.91356 6008 ft 267 kts 72°
2026-05-04 16:11 50.24299 8.99149 6010 ft 251 kts 73°
2026-05-04 16:11 50.24896 9.01719 6012 ft 252 kts 73°
2026-05-04 16:12 50.24603 9.09230 5733 ft 234 kts 134°
2026-05-04 16:12 50.20269 9.11350 5348 ft 227 kts 190°
2026-05-04 16:13 50.17742 9.08729 5112 ft 228 kts 239°
2026-05-04 16:13 50.16555 9.04142 5006 ft 229 kts 249°
2026-05-04 16:14 50.15473 8.99467 5007 ft 229 kts 248°
2026-05-04 16:14 50.14379 8.94793 5011 ft 229 kts 249°
2026-05-04 16:15 50.12736 8.87792 4885 ft 229 kts 248°
2026-05-04 16:16 50.11647 8.83164 4315 ft 226 kts 249°
2026-05-04 16:16 50.10060 8.76438 3438 ft 214 kts 250°
2026-05-04 16:17 50.09107 8.72416 2902 ft 180 kts 253°
2026-05-04 16:18 50.07913 8.67375 2236 ft 156 kts 252°
2026-05-04 16:18 50.07543 8.65820 2059 ft 148 kts 253°
2026-05-04 16:19 50.06532 8.61562 1476 ft 136 kts 252°
2026-05-04 16:19 50.05875 8.58802 1103 ft 136 kts 253°
2026-05-04 16:20 50.04883 8.54638 576 ft 137 kts 252°
2026-05-04 16:20 50.04286 8.51992 340 ft 96 kts 253°
2026-05-04 16:21 50.03890 8.50896 324 ft 13 kts 220°
2026-05-04 16:22 50.03826 8.50842 330 ft 0 kts 180°
2026-05-04 16:23 50.03802 8.51011 333 ft 11 kts 71°
2026-05-04 16:24 50.04052 8.52049 337 ft 27 kts 70°
2026-05-04 16:25 50.04163 8.52519 352 ft 19 kts 70°
2026-05-04 16:26 50.04333 8.53228 363 ft 18 kts 64°
2026-05-04 16:26 50.04413 8.53786 375 ft 21 kts 84°
2026-05-04 16:27 50.04450 8.54346 374 ft 29 kts 84°
2026-05-04 16:28 50.04238 8.54815 359 ft 13 kts 161°
2026-05-04 16:28 50.04142 8.54868 354 ft 0 kts 159°
2026-05-04 16:29 50.04082 8.54903 353 ft 0 kts 160°
2026-05-04 16:31 50.04074 8.54908 356 ft 4 kts 160°
2026-05-04 16:31 50.03863 8.55049 354 ft 16 kts 136°
2026-05-04 16:32 50.03985 8.55690 357 ft 29 kts 73°
2026-05-04 16:33 50.04082 8.56089 359 ft 22 kts 69°
2026-05-04 16:33 50.04179 8.56502 357 ft 17 kts 71°
2026-05-04 16:34 50.04232 8.56717 360 ft 0 kts 70°
2026-05-04 16:35 50.04274 8.56799 363 ft 11 kts 26°
2026-05-04 16:35 50.04357 8.56830 362 ft 0 kts 11°
2026-05-04 16:39 50.04401 8.56842 362 ft 13 kts
2026-05-04 16:39 50.04624 8.56918 358 ft 18 kts 16°
2026-05-04 16:40 50.04809 8.57046 358 ft 16 kts 25°
2026-05-04 16:40 50.04877 8.57049 358 ft 2 kts 302°
2026-05-04 16:41 50.04883 8.57034 361 ft 1 kts 296°
2026-05-04 16:41 50.04891 8.57006 357 ft 1 kts 292°
2026-05-04 16:42 50.04896 8.56990 365 ft 0 kts 295°